Time,TemperatureF,DewpointF,PressureIn,WindDirection,WindDirectionDegrees,WindSpeedMPH,WindSpeedGustMPH,Humidity,HourlyPrecipIn,Conditions,Clouds,dailyrainin,SoftwareType,DateUTC
2013-09-07 00:01:00,71.2,64.1,29.94,ESE,112,0.0,0.0,78,0.00,,,0.00,WUHU21636XXSP,2013-09-07 05:01:00,
2013-09-07 00:06:00,70.8,63.7,29.94,ESE,112,0.0,0.0,78,0.00,,,0.00,WUHU21636XXSP,2013-09-07 05:06:00,
2013-09-07 00:11:00,70.8,63.7,29.94,ESE,112,0.0,0.0,78,0.00,,,0.00,WUHU21636XXSP,2013-09-07 05:11:00,
2013-09-07 00:16:00,70.6,63.5,29.94,ESE,112,0.0,0.0,78,0.00,,,0.00,WUHU21636XXSP,2013-09-07 05:16:00,
2013-09-07 00:21:00,70.5,63.4,29.94,ESE,112,0.0,0.0,78,0.00,,,0.00,WUHU21636XXSP,2013-09-07 05:21:00,
2013-09-07 00:26:00,70.2,63.2,29.94,ESE,112,0.0,0.0,78,0.00,,,0.00,WUHU21636XXSP,2013-09-07 05:26:00,
2013-09-07 00:31:00,70.2,63.5,29.94,ESE,112,0.0,0.0,79,0.00,,,0.00,WUHU21636XXSP,2013-09-07 05:31:00,
2013-09-07 00:36:00,69.8,63.1,29.94,ESE,112,0.0,0.0,79,0.00,,,0.00,WUHU21636XXSP,2013-09-07 05:36:00,
2013-09-07 00:41:00,69.8,63.1,29.94,ESE,112,0.0,0.0,79,0.00,,,0.00,WUHU21636XXSP,2013-09-07 05:41:00,
2013-09-07 00:46:00,69.6,62.9,29.95,ESE,112,0.0,0.0,79,0.00,,,0.00,WUHU21636XXSP,2013-09-07 05:46:00,
2013-09-07 00:51:00,69.6,62.9,29.94,ESE,112,0.0,0.0,79,0.00,,,0.00,WUHU21636XXSP,2013-09-07 05:51:00,
2013-09-07 00:56:00,69.5,62.8,29.95,ESE,112,0.0,0.0,79,0.00,,,0.00,WUHU21636XXSP,2013-09-07 05:56:00,
2013-09-07 01:01:00,69.3,62.6,29.94,ESE,112,0.0,0.0,79,0.00,,,0.00,WUHU21636XXSP,2013-09-07 06:01:00,
2013-09-07 01:06:00,69.3,62.6,29.94,ESE,112,0.0,0.0,79,0.00,,,0.00,WUHU21636XXSP,2013-09-07 06:06:00,
2013-09-07 01:11:00,69.3,62.9,29.94,ESE,112,0.0,0.0,80,0.00,,,0.00,WUHU21636XXSP,2013-09-07 06:11:00,
2013-09-07 01:16:00,69.1,62.7,29.94,ESE,112,0.0,0.0,80,0.00,,,0.00,WUHU21636XXSP,2013-09-07 06:16:00,
2013-09-07 01:21:00,68.9,62.5,29.94,ESE,112,0.0,0.0,80,0.00,,,0.00,WUHU21636XXSP,2013-09-07 06:21:00,
2013-09-07 01:26:00,68.7,62.3,29.94,East,90,0.0,0.0,80,0.00,,,0.00,WUHU21636XXSP,2013-09-07 06:26:00,
2013-09-07 01:31:00,68.7,62.3,29.94,East,90,0.0,0.0,80,0.00,,,0.00,WUHU21636XXSP,2013-09-07 06:31:00,
2013-09-07 01:36:00,68.6,62.2,29.94,East,90,0.0,0.0,80,0.00,,,0.00,WUHU21636XXSP,2013-09-07 06:36:00,
2013-09-07 01:41:00,68.4,62.0,29.94,East,90,0.0,0.0,80,0.00,,,0.00,WUHU21636XXSP,2013-09-07 06:41:00,
2013-09-07 01:46:00,68.4,62.0,29.94,ESE,112,0.0,0.0,80,0.00,,,0.00,WUHU21636XXSP,2013-09-07 06:46:00,
2013-09-07 01:51:00,68.4,62.0,29.93,East,90,0.0,0.0,80,0.00,,,0.00,WUHU21636XXSP,2013-09-07 06:51:00,
2013-09-07 01:56:00,68.1,62.2,29.94,ESE,112,0.0,0.0,81,0.00,,,0.00,WUHU21636XXSP,2013-09-07 06:56:00,
2013-09-07 02:01:00,68.1,62.2,29.93,ESE,112,0.0,0.0,81,0.00,,,0.00,WUHU21636XXSP,2013-09-07 07:01:00,
2013-09-07 02:06:00,67.9,62.0,29.93,ESE,112,0.0,0.0,81,0.00,,,0.00,WUHU21636XXSP,2013-09-07 07:06:00,
2013-09-07 02:11:00,67.9,62.0,29.93,ESE,112,0.0,0.0,81,0.00,,,0.00,WUHU21636XXSP,2013-09-07 07:11:00,
2013-09-07 02:16:00,67.9,62.0,29.93,ESE,112,0.0,0.0,81,0.00,,,0.00,WUHU21636XXSP,2013-09-07 07:16:00,
2013-09-07 02:21:00,67.9,62.0,29.93,ESE,112,0.0,0.0,81,0.00,,,0.00,WUHU21636XXSP,2013-09-07 07:21:00,
2013-09-07 02:26:00,67.9,62.0,29.93,ESE,112,0.0,0.0,81,0.00,,,0.00,WUHU21636XXSP,2013-09-07 07:26:00,
2013-09-07 02:31:00,67.9,62.0,29.93,East,90,0.0,0.0,81,0.00,,,0.00,WUHU21636XXSP,2013-09-07 07:31:00,
2013-09-07 02:36:00,67.7,61.7,29.93,ESE,112,0.0,0.0,81,0.00,,,0.00,WUHU21636XXSP,2013-09-07 07:36:00,
2013-09-07 02:41:00,67.9,62.0,29.93,East,90,0.0,0.0,81,0.00,,,0.00,WUHU21636XXSP,2013-09-07 07:41:00,
2013-09-07 02:46:00,67.9,62.3,29.93,ESE,112,0.0,0.0,82,0.00,,,0.00,WUHU21636XXSP,2013-09-07 07:46:00,
2013-09-07 02:51:00,67.7,62.1,29.92,East,90,0.0,0.0,82,0.00,,,0.00,WUHU21636XXSP,2013-09-07 07:51:00,
2013-09-07 02:56:00,67.7,62.1,29.92,ESE,112,0.0,0.0,82,0.00,,,0.00,WUHU21636XXSP,2013-09-07 07:56:00,
2013-09-07 03:01:00,67.7,62.1,29.92,East,90,0.0,0.0,82,0.00,,,0.00,WUHU21636XXSP,2013-09-07 08:01:00,
2013-09-07 03:06:00,67.7,62.1,29.92,NW,315,0.0,0.0,82,0.00,,,0.00,WUHU21636XXSP,2013-09-07 08:06:00,
2013-09-07 03:11:00,67.7,62.1,29.92,SE,135,5.8,5.8,82,0.00,,,0.00,WUHU21636XXSP,2013-09-07 08:11:00,
2013-09-07 03:16:00,67.7,62.1,29.92,ESE,112,0.0,5.8,82,0.00,,,0.00,WUHU21636XXSP,2013-09-07 08:16:00,
2013-09-07 03:21:00,67.7,61.7,29.92,ESE,112,3.0,5.8,81,0.00,,,0.00,WUHU21636XXSP,2013-09-07 08:21:00,
2013-09-07 03:26:00,67.9,61.6,29.92,NW,315,5.8,5.8,80,0.00,,,0.00,WUHU21636XXSP,2013-09-07 08:26:00,
2013-09-07 03:31:00,68.6,61.5,29.92,WNW,292,0.0,5.8,78,0.00,,,0.00,WUHU21636XXSP,2013-09-07 08:31:00,
2013-09-07 03:36:00,68.9,61.5,29.92,SSE,157,0.0,5.8,77,0.00,,,0.00,WUHU21636XXSP,2013-09-07 08:36:00,
2013-09-07 03:41:00,69.3,61.9,29.92,WSW,247,0.0,0.0,77,0.00,,,0.00,WUHU21636XXSP,2013-09-07 08:41:00,
2013-09-07 03:46:00,69.3,61.9,29.92,WSW,247,0.0,0.0,77,0.00,,,0.00,WUHU21636XXSP,2013-09-07 08:46:00,
2013-09-07 03:51:00,69.6,61.8,29.92,WSW,247,0.0,0.0,76,0.00,,,0.00,WUHU21636XXSP,2013-09-07 08:51:00,
2013-09-07 03:56:00,69.6,61.5,29.92,NW,315,0.0,0.0,75,0.00,,,0.00,WUHU21636XXSP,2013-09-07 08:56:00,
2013-09-07 04:01:00,69.8,61.3,29.92,East,90,0.0,0.0,74,0.00,,,0.00,WUHU21636XXSP,2013-09-07 09:01:00,
2013-09-07 04:06:00,70.5,61.5,29.92,NNE,22,0.0,0.0,73,0.00,,,0.00,WUHU21636XXSP,2013-09-07 09:06:00,
2013-09-07 04:11:00,70.8,61.5,29.92,WSW,247,0.0,0.0,72,0.00,,,0.00,WUHU21636XXSP,2013-09-07 09:11:00,
2013-09-07 04:16:00,71.2,61.5,29.91,SSW,202,0.0,0.0,71,0.00,,,0.00,WUHU21636XXSP,2013-09-07 09:16:00,
2013-09-07 04:21:00,71.5,61.8,29.91,NNE,22,0.0,0.0,71,0.00,,,0.00,WUHU21636XXSP,2013-09-07 09:21:00,
2013-09-07 04:26:00,71.5,61.0,29.91,SSW,202,0.0,0.0,69,0.00,,,0.00,WUHU21636XXSP,2013-09-07 09:26:00,
2013-09-07 04:31:00,71.7,61.6,29.91,SSW,202,0.0,0.0,70,0.00,,,0.00,WUHU21636XXSP,2013-09-07 09:31:00,
2013-09-07 04:36:00,71.7,61.6,29.91,SSW,202,0.0,0.0,70,0.00,,,0.00,WUHU21636XXSP,2013-09-07 09:36:00,
2013-09-07 04:41:00,71.9,61.4,29.90,North,0,0.0,0.0,69,0.00,,,0.00,WUHU21636XXSP,2013-09-07 09:41:00,
2013-09-07 04:46:00,72.1,61.6,29.91,North,0,0.0,0.0,69,0.00,,,0.00,WUHU21636XXSP,2013-09-07 09:46:00,
2013-09-07 04:51:00,72.1,61.6,29.90,North,0,0.0,0.0,69,0.00,,,0.00,WUHU21636XXSP,2013-09-07 09:51:00,
2013-09-07 04:56:00,71.9,61.4,29.90,NNE,22,0.0,0.0,69,0.00,,,0.00,WUHU21636XXSP,2013-09-07 09:56:00,
2013-09-07 05:01:00,71.9,61.8,29.90,NNE,22,0.0,0.0,70,0.00,,,0.00,WUHU21636XXSP,2013-09-07 10:01:00,
2013-09-07 05:06:00,71.7,62.0,29.91,NNE,22,0.0,0.0,71,0.00,,,0.00,WUHU21636XXSP,2013-09-07 10:06:00,
2013-09-07 05:11:00,71.5,61.4,29.91,NNE,22,0.0,0.0,70,0.00,,,0.00,WUHU21636XXSP,2013-09-07 10:11:00,
2013-09-07 05:16:00,71.5,61.4,29.90,NNW,337,0.0,0.0,70,0.00,,,0.00,WUHU21636XXSP,2013-09-07 10:16:00,
2013-09-07 05:21:00,71.5,61.4,29.91,WSW,247,0.0,0.0,70,0.00,,,0.00,WUHU21636XXSP,2013-09-07 10:21:00,
2013-09-07 05:26:00,71.5,61.4,29.90,NW,315,0.0,0.0,70,0.00,,,0.00,WUHU21636XXSP,2013-09-07 10:26:00,
2013-09-07 05:31:00,71.7,61.6,29.91,NW,315,0.0,0.0,70,0.00,,,0.00,WUHU21636XXSP,2013-09-07 10:31:00,
2013-09-07 05:36:00,71.5,61.4,29.90,NW,315,0.0,0.0,70,0.00,,,0.00,WUHU21636XXSP,2013-09-07 10:36:00,
2013-09-07 05:41:00,71.7,61.6,29.90,NW,315,0.0,0.0,70,0.00,,,0.00,WUHU21636XXSP,2013-09-07 10:41:00,
2013-09-07 05:46:00,71.5,61.4,29.90,NW,315,0.0,0.0,70,0.00,,,0.00,WUHU21636XXSP,2013-09-07 10:46:00,
2013-09-07 05:51:00,71.5,61.8,29.90,NW,315,0.0,0.0,71,0.00,,,0.00,WUHU21636XXSP,2013-09-07 10:51:00,
2013-09-07 05:56:00,71.5,61.8,29.90,NW,315,0.0,0.0,71,0.00,,,0.00,WUHU21636XXSP,2013-09-07 10:56:00,
2013-09-07 06:01:00,71.4,62.1,29.90,NW,315,0.0,0.0,72,0.00,,,0.00,WUHU21636XXSP,2013-09-07 11:01:00,
2013-09-07 06:06:00,71.0,61.7,29.90,NW,315,0.0,0.0,72,0.00,,,0.00,WUHU21636XXSP,2013-09-07 11:06:00,
2013-09-07 06:11:00,71.0,62.0,29.90,NW,315,0.0,0.0,73,0.00,,,0.00,WUHU21636XXSP,2013-09-07 11:11:00,
2013-09-07 06:16:00,70.6,61.6,29.90,NW,315,0.0,0.0,73,0.00,,,0.00,WUHU21636XXSP,2013-09-07 11:16:00,
2013-09-07 06:21:00,70.6,62.0,29.90,NW,315,0.0,0.0,74,0.00,,,0.00,WUHU21636XXSP,2013-09-07 11:21:00,
2013-09-07 06:26:00,70.2,61.7,29.90,NW,315,0.0,0.0,74,0.00,,,0.00,WUHU21636XXSP,2013-09-07 11:26:00,
2013-09-07 06:31:00,70.0,61.9,29.90,NW,315,0.0,0.0,75,0.00,,,0.00,WUHU21636XXSP,2013-09-07 11:31:00,
2013-09-07 06:36:00,69.8,62.0,29.91,NW,315,0.0,0.0,76,0.00,,,0.00,WUHU21636XXSP,2013-09-07 11:36:00,
2013-09-07 06:41:00,69.6,61.8,29.91,NW,315,0.0,0.0,76,0.00,,,0.00,WUHU21636XXSP,2013-09-07 11:41:00,
2013-09-07 06:46:00,69.5,61.7,29.91,NW,315,0.0,0.0,76,0.00,,,0.00,WUHU21636XXSP,2013-09-07 11:46:00,
2013-09-07 06:51:00,69.3,61.5,29.90,NW,315,0.0,0.0,76,0.00,,,0.00,WUHU21636XXSP,2013-09-07 11:51:00,
2013-09-07 06:56:00,69.1,61.7,29.91,NW,315,0.0,0.0,77,0.00,,,0.00,WUHU21636XXSP,2013-09-07 11:56:00,
2013-09-07 07:01:00,68.9,61.5,29.90,NW,315,0.0,0.0,77,0.00,,,0.00,WUHU21636XXSP,2013-09-07 12:01:00,
2013-09-07 07:06:00,68.7,61.6,29.90,NW,315,0.0,0.0,78,0.00,,,0.00,WUHU21636XXSP,2013-09-07 12:06:00,
2013-09-07 07:11:00,68.7,61.6,29.90,NW,315,0.0,0.0,78,0.00,,,0.00,WUHU21636XXSP,2013-09-07 12:11:00,
2013-09-07 07:16:00,68.6,61.5,29.90,NW,315,0.0,0.0,78,0.00,,,0.00,WUHU21636XXSP,2013-09-07 12:16:00,
2013-09-07 07:21:00,68.4,61.3,29.90,NW,315,0.0,0.0,78,0.00,,,0.00,WUHU21636XXSP,2013-09-07 12:21:00,
2013-09-07 07:26:00,68.4,61.3,29.90,NW,315,0.0,0.0,78,0.00,,,0.00,WUHU21636XXSP,2013-09-07 12:26:00,
2013-09-07 07:31:00,68.4,61.7,29.91,NW,315,0.0,0.0,79,0.00,,,0.00,WUHU21636XXSP,2013-09-07 12:31:00,
2013-09-07 07:36:00,67.9,61.3,29.91,NW,315,0.0,0.0,79,0.00,,,0.00,WUHU21636XXSP,2013-09-07 12:36:00,
2013-09-07 07:41:00,68.4,61.7,29.91,NW,315,0.0,0.0,79,0.00,,,0.00,WUHU21636XXSP,2013-09-07 12:41:00,
2013-09-07 07:46:00,68.1,61.5,29.91,NW,315,0.0,0.0,79,0.00,,,0.00,WUHU21636XXSP,2013-09-07 12:46:00,
2013-09-07 07:51:00,67.9,61.6,29.92,NW,315,0.0,0.0,80,0.00,,,0.00,WUHU21636XXSP,2013-09-07 12:51:00,
2013-09-07 07:56:00,68.1,61.8,29.92,NW,315,0.0,0.0,80,0.00,,,0.00,WUHU21636XXSP,2013-09-07 12:56:00,
2013-09-07 08:01:00,68.1,61.8,29.91,NW,315,0.0,0.0,80,0.00,,,0.00,WUHU21636XXSP,2013-09-07 13:01:00,
2013-09-07 08:06:00,68.4,62.0,29.91,NW,315,0.0,0.0,80,0.00,,,0.00,WUHU21636XXSP,2013-09-07 13:06:00,
2013-09-07 08:11:00,68.6,62.2,29.91,NW,315,0.0,0.0,80,0.00,,,0.00,WUHU21636XXSP,2013-09-07 13:11:00,
2013-09-07 08:16:00,68.7,62.3,29.91,NW,315,0.0,0.0,80,0.00,,,0.00,WUHU21636XXSP,2013-09-07 13:16:00,
2013-09-07 08:21:00,68.7,62.3,29.91,NW,315,0.0,0.0,80,0.00,,,0.00,WUHU21636XXSP,2013-09-07 13:21:00,
2013-09-07 08:27:00,68.9,62.5,29.91,NW,315,0.0,0.0,80,0.00,,,0.00,WUHU21636XXSP,2013-09-07 13:27:00,
2013-09-07 08:32:00,69.1,63.1,29.91,NW,315,0.0,0.0,81,0.00,,,0.00,WUHU21636XXSP,2013-09-07 13:32:00,
2013-09-07 08:37:00,69.6,63.3,29.91,SSE,157,0.0,0.0,80,0.00,,,0.00,WUHU21636XXSP,2013-09-07 13:37:00,
2013-09-07 08:42:00,69.8,63.1,29.91,SSE,157,0.0,1.6,79,0.00,,,0.00,WUHU21636XXSP,2013-09-07 13:42:00,
2013-09-07 08:47:00,70.5,63.7,29.91,SSE,157,0.0,1.6,79,0.00,,,0.00,WUHU21636XXSP,2013-09-07 13:47:00,
2013-09-07 08:52:00,70.8,64.0,29.91,SSE,157,0.0,0.0,79,0.00,,,0.00,WUHU21636XXSP,2013-09-07 13:52:00,
2013-09-07 08:57:00,71.0,63.9,29.91,SSE,157,0.0,0.0,78,0.00,,,0.00,WUHU21636XXSP,2013-09-07 13:57:00,
2013-09-07 09:02:00,71.2,63.7,29.91,SSE,157,0.0,0.0,77,0.00,,,0.00,WUHU21636XXSP,2013-09-07 14:02:00,
2013-09-07 09:07:00,71.5,63.7,29.92,East,90,0.0,0.0,76,0.00,,,0.00,WUHU21636XXSP,2013-09-07 14:07:00,
2013-09-07 09:12:00,71.9,63.7,29.91,ENE,67,0.0,0.0,75,0.00,,,0.00,WUHU21636XXSP,2013-09-07 14:12:00,
2013-09-07 09:17:00,72.4,64.2,29.92,ENE,67,0.0,0.0,75,0.00,,,0.00,WUHU21636XXSP,2013-09-07 14:17:00,
2013-09-07 09:22:00,72.7,64.1,29.91,NNE,22,0.0,0.0,74,0.00,,,0.00,WUHU21636XXSP,2013-09-07 14:22:00,
2013-09-07 09:27:00,73.1,64.8,29.91,NNE,22,0.0,0.0,75,0.00,,,0.00,WUHU21636XXSP,2013-09-07 14:27:00,
2013-09-07 09:32:00,73.4,64.4,29.91,ENE,67,0.0,0.0,73,0.00,,,0.00,WUHU21636XXSP,2013-09-07 14:32:00,
2013-09-07 09:37:00,73.6,64.6,29.91,East,90,0.0,0.0,73,0.00,,,0.00,WUHU21636XXSP,2013-09-07 14:37:00,
2013-09-07 09:42:00,74.0,65.0,29.91,NNW,337,0.0,0.0,73,0.00,,,0.00,WUHU21636XXSP,2013-09-07 14:42:00,
2013-09-07 09:47:00,74.2,65.2,29.91,WNW,292,0.0,0.0,73,0.00,,,0.00,WUHU21636XXSP,2013-09-07 14:47:00,
2013-09-07 09:52:00,74.6,65.1,29.91,SSW,202,0.0,0.0,72,0.00,,,0.00,WUHU21636XXSP,2013-09-07 14:52:00,
2013-09-07 09:57:00,75.0,65.5,29.91,SSW,202,0.0,0.0,72,0.00,,,0.00,WUHU21636XXSP,2013-09-07 14:57:00,
2013-09-07 10:01:00,75.2,66.1,29.91,SE,135,1.6,1.6,73,0.00,,,0.00,WUHU21636XXSP,2013-09-07 15:01:00,
2013-09-07 10:06:00,75.5,66.0,29.91,SE,135,0.0,1.6,72,0.00,,,0.00,WUHU21636XXSP,2013-09-07 15:06:00,
2013-09-07 10:11:00,75.9,66.4,29.92,ESE,112,0.0,0.0,72,0.00,,,0.00,WUHU21636XXSP,2013-09-07 15:11:00,
2013-09-07 10:16:00,76.2,66.7,29.92,ESE,112,0.0,0.0,72,0.00,,,0.00,WUHU21636XXSP,2013-09-07 15:16:00,
2013-09-07 10:21:00,76.7,67.1,29.92,ESE,112,0.0,0.0,72,0.00,,,0.00,WUHU21636XXSP,2013-09-07 15:21:00,
2013-09-07 10:26:00,77.2,67.6,29.91,ESE,112,0.0,0.0,72,0.00,,,0.00,WUHU21636XXSP,2013-09-07 15:26:00,
2013-09-07 10:31:00,77.2,67.6,29.91,SE,135,0.0,0.0,72,0.00,,,0.00,WUHU21636XXSP,2013-09-07 15:31:00,
2013-09-07 10:36:00,77.8,67.4,29.91,SSE,157,0.0,0.0,70,0.00,,,0.00,WUHU21636XXSP,2013-09-07 15:36:00,
2013-09-07 10:41:00,78.1,67.8,29.91,SSW,202,0.8,0.8,70,0.00,,,0.00,WUHU21636XXSP,2013-09-07 15:41:00,
2013-09-07 10:46:00,78.5,67.7,29.91,WSW,247,0.0,0.8,69,0.00,,,0.00,WUHU21636XXSP,2013-09-07 15:46:00,
2013-09-07 10:51:00,79.1,68.2,29.91,ESE,112,0.0,0.0,69,0.00,,,0.00,WUHU21636XXSP,2013-09-07 15:51:00,
2013-09-07 10:56:00,79.5,68.7,29.91,SE,135,0.0,0.0,69,0.00,,,0.00,WUHU21636XXSP,2013-09-07 15:56:00,
2013-09-07 11:01:00,80.0,69.2,29.90,SE,135,0.0,0.0,69,0.00,,,0.00,WUHU21636XXSP,2013-09-07 16:01:00,
2013-09-07 11:06:00,80.4,69.1,29.90,SE,135,0.0,0.0,68,0.00,,,0.00,WUHU21636XXSP,2013-09-07 16:06:00,
2013-09-07 11:11:00,80.8,69.5,29.90,SE,135,0.0,0.0,68,0.00,,,0.00,WUHU21636XXSP,2013-09-07 16:11:00,
2013-09-07 11:16:00,81.2,69.8,29.90,SE,135,0.0,0.0,68,0.00,,,0.00,WUHU21636XXSP,2013-09-07 16:16:00,
2013-09-07 11:21:00,81.8,69.6,29.90,SSW,202,6.2,6.2,66,0.00,,,0.00,WUHU21636XXSP,2013-09-07 16:21:00,
2013-09-07 11:26:00,81.9,69.2,29.90,SSW,202,0.0,6.2,65,0.00,,,0.00,WUHU21636XXSP,2013-09-07 16:26:00,
2013-09-07 11:31:00,82.3,69.2,29.89,WSW,247,0.0,6.2,64,0.00,,,0.00,WUHU21636XXSP,2013-09-07 16:31:00,
2013-09-07 11:36:00,82.7,70.5,29.90,SE,135,0.0,3.0,66,0.00,,,0.00,WUHU21636XXSP,2013-09-07 16:36:00,
2013-09-07 11:41:00,83.5,70.7,29.90,East,90,8.0,8.0,65,0.00,,,0.00,WUHU21636XXSP,2013-09-07 16:41:00,
2013-09-07 11:46:00,83.7,70.9,29.90,East,90,0.0,8.0,65,0.00,,,0.00,WUHU21636XXSP,2013-09-07 16:46:00,
2013-09-07 11:51:00,83.8,70.6,29.90,East,90,0.0,0.0,64,0.00,,,0.00,WUHU21636XXSP,2013-09-07 16:51:00,
2013-09-07 11:56:00,84.2,71.0,29.90,East,90,0.0,0.0,64,0.00,,,0.00,WUHU21636XXSP,2013-09-07 16:56:00,
2013-09-07 12:01:00,84.9,71.7,29.90,ESE,112,0.0,0.0,64,0.00,,,0.00,WUHU21636XXSP,2013-09-07 17:01:00,
2013-09-07 12:06:00,85.2,70.9,29.90,SW,225,0.0,0.0,62,0.00,,,0.00,WUHU21636XXSP,2013-09-07 17:06:00,
2013-09-07 12:11:00,85.4,71.6,29.90,SSW,202,0.0,0.0,63,0.00,,,0.00,WUHU21636XXSP,2013-09-07 17:11:00,
2013-09-07 12:16:00,85.9,71.6,29.89,ESE,112,0.0,4.0,62,0.00,,,0.00,WUHU21636XXSP,2013-09-07 17:16:00,
2013-09-07 12:21:00,86.6,72.3,29.89,East,90,0.0,4.0,62,0.00,,,0.00,WUHU21636XXSP,2013-09-07 17:21:00,
2013-09-07 12:26:00,87.3,72.4,29.89,SE,135,0.0,0.0,61,0.00,,,0.00,WUHU21636XXSP,2013-09-07 17:26:00,
2013-09-07 12:31:00,87.5,72.2,29.89,SE,135,0.0,0.0,60,0.00,,,0.00,WUHU21636XXSP,2013-09-07 17:31:00,
2013-09-07 12:36:00,87.6,72.7,29.89,SE,135,0.0,0.0,61,0.00,,,0.00,WUHU21636XXSP,2013-09-07 17:36:00,
2013-09-07 12:41:00,88.2,72.8,29.89,SE,135,6.2,6.2,60,0.00,,,0.00,WUHU21636XXSP,2013-09-07 17:41:00,
2013-09-07 12:46:00,88.7,72.8,29.89,SSE,157,0.0,6.2,59,0.00,,,0.00,WUHU21636XXSP,2013-09-07 17:46:00,
2013-09-07 12:51:00,89.1,73.2,29.89,SSW,202,0.0,0.0,59,0.00,,,0.00,WUHU21636XXSP,2013-09-07 17:51:00,
2013-09-07 12:56:00,89.5,73.0,29.88,SSW,202,0.0,0.0,58,0.00,,,0.00,WUHU21636XXSP,2013-09-07 17:56:00,
2013-09-07 13:01:00,89.4,73.4,29.88,ENE,67,0.0,0.0,59,0.00,,,0.00,WUHU21636XXSP,2013-09-07 18:01:00,
2013-09-07 13:06:00,89.5,74.0,29.88,ESE,112,0.0,0.0,60,0.00,,,0.00,WUHU21636XXSP,2013-09-07 18:06:00,
2013-09-07 13:11:00,89.5,73.0,29.88,SW,225,5.8,5.8,58,0.00,,,0.00,WUHU21636XXSP,2013-09-07 18:11:00,
2013-09-07 13:16:00,89.4,72.9,29.88,SW,225,0.0,5.8,58,0.00,,,0.00,WUHU21636XXSP,2013-09-07 18:16:00,
2013-09-07 13:21:00,89.5,73.5,29.88,WSW,247,4.0,5.8,59,0.00,,,0.00,WUHU21636XXSP,2013-09-07 18:21:00,
2013-09-07 13:26:00,90.1,73.6,29.88,SSW,202,3.0,4.0,58,0.00,,,0.00,WUHU21636XXSP,2013-09-07 18:26:00,
2013-09-07 13:31:00,90.6,74.1,29.88,South,180,1.6,3.0,58,0.00,,,0.00,WUHU21636XXSP,2013-09-07 18:31:00,
2013-09-07 13:36:00,91.2,74.2,29.87,WNW,292,0.0,1.6,57,0.00,,,0.00,WUHU21636XXSP,2013-09-07 18:36:00,
2013-09-07 13:41:00,91.3,74.8,29.88,SSE,157,0.0,2.2,58,0.00,,,0.00,WUHU21636XXSP,2013-09-07 18:41:00,
2013-09-07 13:46:00,92.0,74.3,29.88,WSW,247,5.2,5.2,56,0.00,,,0.00,WUHU21636XXSP,2013-09-07 18:46:00,
2013-09-07 13:51:00,92.0,74.3,29.87,ESE,112,0.0,5.2,56,0.00,,,0.00,WUHU21636XXSP,2013-09-07 18:51:00,
2013-09-07 13:56:00,92.3,74.1,29.87,SE,135,7.0,7.0,55,0.00,,,0.00,WUHU21636XXSP,2013-09-07 18:56:00,
2013-09-07 14:01:00,92.3,75.2,29.87,SE,126,3.9,7.0,57,0.00,,,0.00,WUHU21636XXSP,2013-09-07 19:01:00,
2013-09-07 14:06:00,92.5,73.7,29.87,WSW,247,4.4,4.8,54,0.00,,,0.00,WUHU21636XXSP,2013-09-07 19:06:00,
2013-09-07 14:11:00,92.7,74.5,29.87,SSW,202,7.6,7.6,55,0.00,,,0.00,WUHU21636XXSP,2013-09-07 19:11:00,
2013-09-07 14:16:00,92.9,74.7,29.87,SE,135,0.0,7.6,55,0.00,,,0.00,WUHU21636XXSP,2013-09-07 19:16:00,
2013-09-07 14:21:00,93.2,75.5,29.87,SE,135,0.0,0.0,56,0.00,,,0.00,WUHU21636XXSP,2013-09-07 19:21:00,
2013-09-07 14:26:00,93.4,75.7,29.87,ESE,112,6.2,6.2,56,0.00,,,0.00,WUHU21636XXSP,2013-09-07 19:26:00,
2013-09-07 14:31:00,93.4,75.7,29.87,SE,135,3.4,6.2,56,0.00,,,0.00,WUHU21636XXSP,2013-09-07 19:31:00,
2013-09-07 14:36:00,93.4,75.7,29.86,ESE,112,4.4,6.2,56,0.00,,,0.00,WUHU21636XXSP,2013-09-07 19:36:00,
2013-09-07 14:41:00,93.7,75.9,29.86,ESE,112,0.0,4.4,56,0.00,,,0.00,WUHU21636XXSP,2013-09-07 19:41:00,
2013-09-07 14:46:00,93.7,75.3,29.86,SE,135,5.2,5.2,55,0.00,,,0.00,WUHU21636XXSP,2013-09-07 19:46:00,
2013-09-07 14:51:00,93.9,75.5,29.86,SSE,157,0.0,5.2,55,0.00,,,0.00,WUHU21636XXSP,2013-09-07 19:51:00,
2013-09-07 14:56:00,94.1,74.6,29.86,WSW,247,8.0,8.0,53,0.00,,,0.00,WUHU21636XXSP,2013-09-07 19:56:00,
2013-09-07 15:01:00,93.9,76.1,29.86,East,79,6.6,8.0,56,0.00,,,0.00,WUHU21636XXSP,2013-09-07 20:01:00,
2013-09-07 15:06:00,94.2,76.9,29.87,ESE,112,4.4,8.0,57,0.00,,,0.00,WUHU21636XXSP,2013-09-07 20:06:00,
2013-09-07 15:11:00,94.2,76.4,29.86,ESE,112,0.0,5.2,56,0.00,,,0.00,WUHU21636XXSP,2013-09-07 20:11:00,
2013-09-07 15:16:00,94.4,76.0,29.87,SE,135,6.6,6.6,55,0.00,,,0.00,WUHU21636XXSP,2013-09-07 20:16:00,
2013-09-07 15:21:00,94.4,76.0,29.87,SSE,157,0.0,6.6,55,0.00,,,0.00,WUHU21636XXSP,2013-09-07 20:21:00,
2013-09-07 15:26:00,94.4,75.5,29.87,SSE,157,0.0,6.6,54,0.00,,,0.00,WUHU21636XXSP,2013-09-07 20:26:00,
2013-09-07 15:31:00,94.2,76.4,29.87,SSE,157,0.0,0.0,56,0.00,,,0.00,WUHU21636XXSP,2013-09-07 20:31:00,
2013-09-07 15:36:00,93.9,76.1,29.87,SSE,157,0.0,0.0,56,0.00,,,0.00,WUHU21636XXSP,2013-09-07 20:36:00,
2013-09-07 15:41:00,93.7,76.4,29.87,SSE,157,0.0,0.0,57,0.00,,,0.00,WUHU21636XXSP,2013-09-07 20:41:00,
2013-09-07 15:46:00,93.9,77.2,29.86,SSE,157,0.0,0.0,58,0.00,,,0.00,WUHU21636XXSP,2013-09-07 20:46:00,
2013-09-07 15:51:00,94.2,77.5,29.86,South,180,1.2,1.2,58,0.00,,,0.00,WUHU21636XXSP,2013-09-07 20:51:00,
2013-09-07 15:56:00,94.2,77.5,29.87,SE,135,0.0,1.2,58,0.00,,,0.00,WUHU21636XXSP,2013-09-07 20:56:00,
2013-09-07 16:01:00,94.4,77.7,29.87,SE,135,0.0,0.0,58,0.00,,,0.00,WUHU21636XXSP,2013-09-07 21:01:00,
2013-09-07 16:06:00,94.6,77.3,29.87,SE,135,0.0,0.0,57,0.00,,,0.00,WUHU21636XXSP,2013-09-07 21:06:00,
2013-09-07 16:11:00,94.8,77.5,29.87,SE,135,0.0,0.0,57,0.00,,,0.00,WUHU21636XXSP,2013-09-07 21:11:00,
2013-09-07 16:16:00,94.2,76.4,29.86,SE,135,0.0,0.0,56,0.00,,,0.00,WUHU21636XXSP,2013-09-07 21:16:00,
2013-09-07 16:21:00,94.2,75.3,29.87,WSW,247,0.0,0.0,54,0.00,,,0.00,WUHU21636XXSP,2013-09-07 21:21:00,
2013-09-07 16:26:00,93.9,75.5,29.87,SSE,157,5.8,5.8,55,0.00,,,0.00,WUHU21636XXSP,2013-09-07 21:26:00,
2013-09-07 16:31:00,93.9,76.1,29.87,SSW,202,3.0,5.8,56,0.00,,,0.00,WUHU21636XXSP,2013-09-07 21:31:00,
2013-09-07 16:36:00,93.4,75.7,29.87,SSW,202,0.0,3.0,56,0.00,,,0.00,WUHU21636XXSP,2013-09-07 21:36:00,
2013-09-07 16:41:00,93.2,76.0,29.87,SW,225,0.0,3.0,57,0.00,,,0.00,WUHU21636XXSP,2013-09-07 21:41:00,
2013-09-07 16:46:00,92.9,75.7,29.87,SW,225,0.0,0.0,57,0.00,,,0.00,WUHU21636XXSP,2013-09-07 21:46:00,
2013-09-07 16:51:00,92.9,76.8,29.87,SW,225,0.0,0.0,59,0.00,,,0.00,WUHU21636XXSP,2013-09-07 21:51:00,
2013-09-07 16:56:00,92.5,75.9,29.87,SW,225,0.0,0.0,58,0.00,,,0.00,WUHU21636XXSP,2013-09-07 21:56:00,
2013-09-07 17:01:00,92.3,76.2,29.87,SW,225,0.0,0.0,59,0.00,,,0.00,WUHU21636XXSP,2013-09-07 22:01:00,
2013-09-07 17:06:00,92.2,77.1,29.87,SSW,202,0.0,0.0,61,0.00,,,0.00,WUHU21636XXSP,2013-09-07 22:06:00,
2013-09-07 17:11:00,91.8,76.2,29.87,SSW,202,0.0,0.0,60,0.00,,,0.00,WUHU21636XXSP,2013-09-07 22:11:00,
2013-09-07 17:17:00,91.8,76.7,29.87,SSW,202,0.0,0.0,61,0.00,,,0.00,WUHU21636XXSP,2013-09-07 22:17:00,
2013-09-07 17:22:00,91.3,76.8,29.87,SSW,202,0.0,0.0,62,0.00,,,0.00,WUHU21636XXSP,2013-09-07 22:22:00,
2013-09-07 17:26:00,91.0,77.0,29.87,SSW,202,0.0,0.0,63,0.00,,,0.00,WUHU21636XXSP,2013-09-07 22:26:00,
2013-09-07 17:31:00,90.6,76.1,29.88,SE,135,0.0,0.0,62,0.00,,,0.00,WUHU21636XXSP,2013-09-07 22:31:00,
2013-09-07 17:36:00,90.4,75.9,29.88,SE,135,0.0,0.0,62,0.00,,,0.00,WUHU21636XXSP,2013-09-07 22:36:00,
2013-09-07 17:41:00,90.1,75.6,29.88,SE,135,0.0,0.0,62,0.00,,,0.00,WUHU21636XXSP,2013-09-07 22:41:00,
2013-09-07 17:46:00,89.9,75.9,29.88,SE,135,0.0,0.0,63,0.00,,,0.00,WUHU21636XXSP,2013-09-07 22:46:00,
2013-09-07 17:51:00,89.7,75.7,29.88,SE,135,0.0,0.0,63,0.00,,,0.00,WUHU21636XXSP,2013-09-07 22:51:00,
2013-09-07 17:57:00,89.4,75.9,29.88,SE,135,0.0,0.0,64,0.00,,,0.00,WUHU21636XXSP,2013-09-07 22:57:00,
2013-09-07 18:02:00,88.9,75.9,29.88,SE,135,0.0,0.0,65,0.00,,,0.00,WUHU21636XXSP,2013-09-07 23:02:00,
2013-09-07 18:07:00,88.5,75.5,29.88,SE,135,0.0,0.0,65,0.00,,,0.00,WUHU21636XXSP,2013-09-07 23:07:00,
2013-09-07 18:12:00,88.5,75.5,29.89,SE,135,0.0,0.0,65,0.00,,,0.00,WUHU21636XXSP,2013-09-07 23:12:00,
2013-09-07 18:17:00,88.5,75.5,29.88,SE,135,0.0,0.0,65,0.00,,,0.00,WUHU21636XXSP,2013-09-07 23:17:00,
2013-09-07 18:22:00,87.8,75.3,29.89,SE,135,0.0,0.0,66,0.00,,,0.00,WUHU21636XXSP,2013-09-07 23:22:00,
2013-09-07 18:27:00,87.5,75.4,29.89,SE,135,0.0,0.0,67,0.00,,,0.00,WUHU21636XXSP,2013-09-07 23:27:00,
2013-09-07 18:32:00,87.3,75.2,29.89,SE,135,0.0,0.0,67,0.00,,,0.00,WUHU21636XXSP,2013-09-07 23:32:00,
2013-09-07 18:37:00,87.0,75.0,29.89,SE,135,0.0,0.0,67,0.00,,,0.00,WUHU21636XXSP,2013-09-07 23:37:00,
2013-09-07 18:42:00,86.6,74.6,29.89,SE,135,0.0,0.0,67,0.00,,,0.00,WUHU21636XXSP,2013-09-07 23:42:00,
2013-09-07 18:47:00,86.5,74.5,29.89,SE,135,0.0,0.0,67,0.00,,,0.00,WUHU21636XXSP,2013-09-07 23:47:00,
2013-09-07 18:52:00,85.9,74.4,29.88,SE,135,0.0,0.0,68,0.00,,,0.00,WUHU21636XXSP,2013-09-07 23:52:00,
2013-09-07 18:57:00,85.7,74.2,29.88,SE,135,0.0,0.0,68,0.00,,,0.00,WUHU21636XXSP,2013-09-07 23:57:00,
2013-09-07 19:02:00,85.6,74.1,29.89,SE,135,0.0,0.0,68,0.00,,,0.00,WUHU21636XXSP,2013-09-08 00:02:00,
2013-09-07 19:07:00,84.9,73.9,29.89,SE,135,0.0,0.0,69,0.00,,,0.00,WUHU21636XXSP,2013-09-08 00:07:00,
2013-09-07 19:12:00,84.7,74.1,29.89,SE,135,0.0,0.0,70,0.00,,,0.00,WUHU21636XXSP,2013-09-08 00:12:00,
2013-09-07 19:17:00,84.7,74.1,29.89,SE,135,0.0,0.0,70,0.00,,,0.00,WUHU21636XXSP,2013-09-08 00:17:00,
2013-09-07 19:22:00,84.2,74.0,29.89,SE,135,0.0,0.0,71,0.00,,,0.00,WUHU21636XXSP,2013-09-08 00:22:00,
2013-09-07 19:27:00,84.0,73.8,29.89,SE,135,0.0,0.0,71,0.00,,,0.00,WUHU21636XXSP,2013-09-08 00:27:00,
2013-09-07 19:32:00,83.8,73.6,29.89,SE,135,0.0,0.0,71,0.00,,,0.00,WUHU21636XXSP,2013-09-08 00:32:00,
2013-09-07 19:37:00,83.1,73.3,29.89,SE,135,0.0,0.0,72,0.00,,,0.00,WUHU21636XXSP,2013-09-08 00:37:00,
2013-09-07 19:42:00,82.8,73.5,29.89,SE,135,0.0,0.0,73,0.00,,,0.00,WUHU21636XXSP,2013-09-08 00:42:00,
2013-09-07 19:47:00,82.5,73.2,29.90,SE,135,0.0,0.0,73,0.00,,,0.00,WUHU21636XXSP,2013-09-08 00:47:00,
2013-09-07 19:52:00,82.1,72.8,29.90,SE,135,0.0,0.0,73,0.00,,,0.00,WUHU21636XXSP,2013-09-08 00:52:00,
2013-09-07 19:57:00,81.9,72.6,29.90,SE,135,0.0,0.0,73,0.00,,,0.00,WUHU21636XXSP,2013-09-08 00:57:00,
2013-09-07 20:02:00,81.6,72.7,29.91,SE,135,0.0,0.0,74,0.00,,,0.00,WUHU21636XXSP,2013-09-08 01:02:00,
2013-09-07 20:07:00,81.0,72.5,29.90,SE,135,0.0,0.0,75,0.00,,,0.00,WUHU21636XXSP,2013-09-08 01:07:00,
2013-09-07 20:12:00,80.6,72.2,29.91,SE,135,0.0,0.0,75,0.00,,,0.00,WUHU21636XXSP,2013-09-08 01:12:00,
2013-09-07 20:17:00,80.0,71.5,29.92,SE,135,0.0,0.0,75,0.00,,,0.00,WUHU21636XXSP,2013-09-08 01:17:00,
2013-09-07 20:22:00,80.0,71.5,29.92,ENE,67,0.0,0.0,75,0.00,,,0.00,WUHU21636XXSP,2013-09-08 01:22:00,
2013-09-07 20:27:00,79.9,71.4,29.92,ENE,67,0.0,0.0,75,0.00,,,0.00,WUHU21636XXSP,2013-09-08 01:27:00,
2013-09-07 20:32:00,79.9,71.4,29.92,ENE,67,0.0,0.0,75,0.00,,,0.00,WUHU21636XXSP,2013-09-08 01:32:00,
2013-09-07 20:37:00,79.7,71.6,29.92,ENE,67,0.0,0.0,76,0.00,,,0.00,WUHU21636XXSP,2013-09-08 01:37:00,
2013-09-07 20:42:00,79.5,71.4,29.92,ENE,67,0.0,0.0,76,0.00,,,0.00,WUHU21636XXSP,2013-09-08 01:42:00,
2013-09-07 20:47:00,79.3,71.2,29.92,ENE,67,0.0,0.0,76,0.00,,,0.00,WUHU21636XXSP,2013-09-08 01:47:00,
2013-09-07 20:52:00,79.3,71.2,29.92,ENE,67,0.0,0.0,76,0.00,,,0.00,WUHU21636XXSP,2013-09-08 01:52:00,
2013-09-07 20:57:00,79.1,71.4,29.92,ENE,67,0.0,0.0,77,0.00,,,0.00,WUHU21636XXSP,2013-09-08 01:57:00,
2013-09-07 21:02:00,79.0,71.3,29.92,ENE,67,0.0,0.0,77,0.00,,,0.00,WUHU21636XXSP,2013-09-08 02:02:00,
2013-09-07 21:07:00,78.8,71.1,29.92,ENE,67,0.0,0.0,77,0.00,,,0.00,WUHU21636XXSP,2013-09-08 02:07:00,
2013-09-07 21:12:00,78.5,70.9,29.92,ENE,67,0.0,0.0,77,0.00,,,0.00,WUHU21636XXSP,2013-09-08 02:12:00,
2013-09-07 21:17:00,78.3,71.0,29.93,ENE,67,0.0,0.0,78,0.00,,,0.00,WUHU21636XXSP,2013-09-08 02:17:00,
2013-09-07 21:22:00,78.3,71.0,29.93,ENE,67,0.0,0.0,78,0.00,,,0.00,WUHU21636XXSP,2013-09-08 02:22:00,
2013-09-07 21:27:00,78.1,70.8,29.93,ENE,67,0.0,0.0,78,0.00,,,0.00,WUHU21636XXSP,2013-09-08 02:27:00,
2013-09-07 21:32:00,78.0,70.7,29.92,ENE,67,0.0,0.0,78,0.00,,,0.00,WUHU21636XXSP,2013-09-08 02:32:00,
2013-09-07 21:37:00,77.8,70.5,29.92,ENE,67,0.0,0.0,78,0.00,,,0.00,WUHU21636XXSP,2013-09-08 02:37:00,
2013-09-07 21:42:00,77.8,70.5,29.92,ENE,67,0.0,0.0,78,0.00,,,0.00,WUHU21636XXSP,2013-09-08 02:42:00,
2013-09-07 21:47:00,77.4,70.1,29.92,ENE,67,0.0,0.0,78,0.00,,,0.00,WUHU21636XXSP,2013-09-08 02:47:00,
2013-09-07 21:52:00,77.2,69.9,29.93,ENE,67,0.0,0.0,78,0.00,,,0.00,WUHU21636XXSP,2013-09-08 02:52:00,
2013-09-07 21:57:00,77.2,69.9,29.93,ENE,67,0.0,0.0,78,0.00,,,0.00,WUHU21636XXSP,2013-09-08 02:57:00,
2013-09-07 22:02:00,76.9,69.6,29.93,ENE,67,0.0,0.0,78,0.00,,,0.00,WUHU21636XXSP,2013-09-08 03:02:00,
2013-09-07 22:07:00,76.9,69.6,29.93,ENE,67,0.0,0.0,78,0.00,,,0.00,WUHU21636XXSP,2013-09-08 03:07:00,
2013-09-07 22:12:00,76.7,69.8,29.93,ENE,67,0.0,0.0,79,0.00,,,0.00,WUHU21636XXSP,2013-09-08 03:12:00,
2013-09-07 22:17:00,76.7,69.8,29.93,ENE,67,0.0,0.0,79,0.00,,,0.00,WUHU21636XXSP,2013-09-08 03:17:00,
2013-09-07 22:22:00,76.4,69.6,29.93,ENE,67,0.0,0.0,79,0.00,,,0.00,WUHU21636XXSP,2013-09-08 03:22:00,
2013-09-07 22:27:00,76.2,69.4,29.94,ENE,67,0.0,0.0,79,0.00,,,0.00,WUHU21636XXSP,2013-09-08 03:27:00,
2013-09-07 22:32:00,76.1,69.3,29.94,ENE,67,0.0,0.0,79,0.00,,,0.00,WUHU21636XXSP,2013-09-08 03:32:00,
2013-09-07 22:37:00,75.9,69.0,29.94,ENE,67,0.0,0.0,79,0.00,,,0.00,WUHU21636XXSP,2013-09-08 03:37:00,
2013-09-07 22:42:00,75.9,69.0,29.94,ENE,67,0.0,0.0,79,0.00,,,0.00,WUHU21636XXSP,2013-09-08 03:42:00,
2013-09-07 22:47:00,75.7,68.8,29.95,ENE,67,0.0,0.0,79,0.00,,,0.00,WUHU21636XXSP,2013-09-08 03:47:00,
2013-09-07 22:52:00,75.7,68.8,29.95,ENE,67,0.0,0.0,79,0.00,,,0.00,WUHU21636XXSP,2013-09-08 03:52:00,
2013-09-07 22:57:00,75.5,68.6,29.94,ENE,67,0.0,0.0,79,0.00,,,0.00,WUHU21636XXSP,2013-09-08 03:57:00,
2013-09-07 23:01:00,75.5,68.6,29.94,ENE,67,0.0,0.0,79,0.00,,,0.00,WUHU21636XXSP,2013-09-08 04:01:00,
2013-09-07 23:06:00,75.5,68.3,29.95,ENE,67,0.0,0.0,78,0.00,,,0.00,WUHU21636XXSP,2013-09-08 04:06:00,
2013-09-07 23:11:00,75.3,68.1,29.95,ENE,67,0.0,0.0,78,0.00,,,0.00,WUHU21636XXSP,2013-09-08 04:11:00,
2013-09-07 23:16:00,75.3,68.1,29.95,ENE,67,0.0,0.0,78,0.00,,,0.00,WUHU21636XXSP,2013-09-08 04:16:00,
2013-09-07 23:21:00,75.3,68.1,29.95,ENE,67,0.0,0.0,78,0.00,,,0.00,WUHU21636XXSP,2013-09-08 04:21:00,
2013-09-07 23:26:00,75.3,68.1,29.95,ENE,67,0.0,0.0,78,0.00,,,0.00,WUHU21636XXSP,2013-09-08 04:26:00,
2013-09-07 23:31:00,75.2,68.0,29.95,ENE,67,0.0,0.0,78,0.00,,,0.00,WUHU21636XXSP,2013-09-08 04:31:00,
2013-09-07 23:36:00,75.0,67.8,29.94,ENE,67,0.0,0.0,78,0.00,,,0.00,WUHU21636XXSP,2013-09-08 04:36:00,
2013-09-07 23:41:00,75.0,67.8,29.95,East,90,0.0,0.0,78,0.00,,,0.00,WUHU21636XXSP,2013-09-08 04:41:00,
2013-09-07 23:46:00,74.8,67.9,29.95,East,90,0.0,0.0,79,0.00,,,0.00,WUHU21636XXSP,2013-09-08 04:46:00,
2013-09-07 23:51:00,74.6,67.7,29.95,East,90,0.0,0.0,79,0.00,,,0.00,WUHU21636XXSP,2013-09-08 04:51:00,
2013-09-07 23:56:00,74.6,67.7,29.95,East,90,0.0,0.0,79,0.00,,,0.00,WUHU21636XXSP,2013-09-08 04:56:00,